TimeEET,TemperatureF,Dew PointF,Humidity,Sea Level PressureIn,VisibilityMPH,Wind Direction,Wind SpeedMPH,Gust SpeedMPH,PrecipitationIn,Events,Conditions,WindDirDegrees,DateUTC
1:20 AM,48.2,44.6,87,29.95,6.2,Calm,Calm,-,N/A,,Scattered Clouds,0,2013-02-04 23:20:00
1:50 AM,46.4,42.8,87,29.95,6.2,Calm,Calm,-,N/A,,Scattered Clouds,0,2013-02-04 23:50:00
2:00 AM,46,42,81,29.98,6,Calm,Calm,,,,Scattered Clouds,,2013-02-05 00:00:00
4:50 AM,42.8,39.2,87,29.95,6.2,Calm,Calm,-,N/A,,Partly Cloudy,0,2013-02-05 02:50:00
5:50 AM,42.8,39.2,87,29.92,6.2,Calm,Calm,-,N/A,,Partly Cloudy,0,2013-02-05 03:50:00
6:20 AM,42.8,41.0,93,29.92,6.2,Calm,Calm,-,N/A,,Partly Cloudy,0,2013-02-05 04:20:00
6:50 AM,42.8,39.2,87,29.92,6.2,Calm,Calm,-,N/A,,Scattered Clouds,0,2013-02-05 04:50:00
7:20 AM,42.8,41.0,93,29.92,5.0,Calm,Calm,-,N/A,,Partly Cloudy,0,2013-02-05 05:20:00
7:50 AM,42.8,39.2,87,29.95,6.2,Calm,Calm,-,N/A,,Partly Cloudy,0,2013-02-05 05:50:00
8:00 AM,42,40,89,29.95,6,Calm,Calm,,,,Scattered Clouds,,2013-02-05 06:00:00
8:20 AM,42.8,39.2,87,29.95,6.2,Calm,Calm,-,N/A,,Partly Cloudy,0,2013-02-05 06:20:00
8:50 AM,46.4,42.8,87,29.95,5.0,Calm,Calm,-,N/A,,Partly Cloudy,0,2013-02-05 06:50:00
9:20 AM,46.4,42.8,87,29.95,5.0,Calm,Calm,-,N/A,,Scattered Clouds,0,2013-02-05 07:20:00
9:50 AM,55.4,50.0,82,29.95,5.0,Calm,Calm,-,N/A,,Partly Cloudy,0,2013-02-05 07:50:00
10:20 AM,55.4,50.0,82,29.95,5.0,Calm,Calm,-,N/A,,Partly Cloudy,0,2013-02-05 08:20:00
10:50 AM,57.2,48.2,72,29.92,5.0,Calm,Calm,-,N/A,,Unknown,0,2013-02-05 08:50:00
11:20 AM,59.0,48.2,67,29.92,-9999.0,Calm,Calm,-,N/A,,Clear,0,2013-02-05 09:20:00
11:50 AM,60.8,48.2,63,29.92,-9999.0,Calm,Calm,-,N/A,,Clear,0,2013-02-05 09:50:00
12:20 PM,60.8,48.2,63,29.92,-9999.0,Calm,Calm,-,N/A,,Clear,0,2013-02-05 10:20:00
12:50 PM,64.4,50.0,59,29.89,-9999.0,Calm,Calm,-,N/A,,Clear,0,2013-02-05 10:50:00
1:20 PM,64.4,50.0,59,29.89,-9999.0,Calm,Calm,-,N/A,,Clear,0,2013-02-05 11:20:00
1:50 PM,66.2,48.2,52,29.86,-9999.0,Calm,Calm,-,N/A,,Clear,0,2013-02-05 11:50:00
2:00 PM,66,48,41,29.88,6,Calm,Calm,,,,Clear,,2013-02-05 12:00:00
2:50 PM,66.2,46.4,49,29.86,-9999.0,North,6.9,-,N/A,,Clear,350,2013-02-05 12:50:00
3:20 PM,66.2,46.4,49,29.86,-9999.0,North,6.9,-,N/A,,Clear,350,2013-02-05 13:20:00
3:50 PM,64.4,46.4,52,29.83,-9999.0,North,9.2,-,N/A,,Clear,10,2013-02-05 13:50:00
4:20 PM,64.4,46.4,52,29.83,-9999.0,North,9.2,-,N/A,,Clear,10,2013-02-05 14:20:00
4:50 PM,62.6,50.0,63,29.86,6.2,North,4.6,-,N/A,,Scattered Clouds,10,2013-02-05 14:50:00
5:20 PM,62.6,50.0,63,29.86,6.2,North,4.6,-,N/A,,Scattered Clouds,10,2013-02-05 15:20:00
5:50 PM,57.2,46.4,67,29.83,6.2,NNW,4.6,-,N/A,,Partly Cloudy,340,2013-02-05 15:50:00
6:20 PM,57.2,46.4,67,29.83,6.2,NNW,4.6,-,N/A,,Partly Cloudy,340,2013-02-05 16:20:00
6:50 PM,55.4,46.4,72,29.86,6.2,NW,6.9,-,N/A,,Partly Cloudy,320,2013-02-05 16:50:00
7:50 PM,53.6,46.4,77,29.86,-9999.0,NNW,6.9,-,N/A,,Clear,340,2013-02-05 17:50:00
8:00 PM,53,47,72,29.87,6,NNW,6.9,,,,,340,2013-02-05 18:00:00
8:50 PM,53.6,46.4,77,29.86,-9999.0,North,6.9,-,N/A,,Clear,10,2013-02-05 18:50:00
9:20 PM,53.6,46.4,77,29.86,-9999.0,North,6.9,-,N/A,,Clear,10,2013-02-05 19:20:00
9:50 PM,50.0,46.4,87,29.86,-9999.0,North,4.6,-,N/A,,Clear,10,2013-02-05 19:50:00
10:20 PM,50.0,46.4,87,29.86,-9999.0,North,4.6,-,N/A,,Clear,10,2013-02-05 20:20:00
10:50 PM,50.0,46.4,87,29.86,-9999.0,Calm,Calm,-,N/A,,Clear,0,2013-02-05 20:50:00
11:20 PM,50.0,46.4,87,29.86,-9999.0,Calm,Calm,-,N/A,,Clear,0,2013-02-05 21:20:00
11:50 PM,48.2,44.6,87,29.86,-9999.0,Calm,Calm,-,N/A,,Clear,0,2013-02-05 21:50:00